Home   Weather   Lörrach   Past weeks

Flag for Germany Past Weather in Lörrach, Baden-Württemberg, Germany — Yesterday and Last 2 Weeks

Now
21 °F

Ice fog.


Feels Like: 16 °F
Forecast: 17 / 28 °F
Wind: 3 mph from North

Location: Bale-Mulhouse

Current Time: Jan 23, 2017 at 11:34:52 am

Latest Report: Jan 23, 2017 at 11:00 am


Visibility: 2 mi

Pressure: 30.27 "Hg

Humidity: 93%

Dew Point: 19 °F

Location of LörrachLocation

Past Weather in Lörrach — Graph

°F

Lörrach Temperature Yesterday

Maximum temperature yesterday: 32 °F (at 2:30 pm)
Minimum temperature yesterday: 12 °F (at 5:30 am)
Average temperature yesterday: 22 °F

High & Low Weather Summary for the Past Weeks

 TemperatureHumidityPressure
High50 °F (Jan 12, 11:00 pm)100% (Jan 9, 10:00 am)30.48 "Hg (Jan 9, 10:00 am)
Low12 °F (Jan 22, 5:30 am)51% (Jan 18, 1:00 pm)29.45 "Hg (Jan 12, 11:30 pm)
Average29 °F83%30.19 "Hg
* Reported Jan 8 10:00 am — Jan 23 10:00 am, Lörrach, Weather by CustomWeather, © 2017

Note: Actual official high and low records may vary slightly from our data, if they occured in-between our weather recording intervals... More about our weather records

Advertising

Lörrach Weather History for the Previous 24 Hours

Scroll right to see more
 ConditionsComfort  
Time TempWeatherWind HumidityBarometerVisibility
10:00 am
Mon, Jan 23
21 °FIce fog.No wind86%30.27 "Hg2 mi
9:30 am19 °FIce fog.3 mph100%30.27 "Hg2 mi
8:30 am19 °FIce fog.2 mph100%30.27 "Hg1 mi
8:00 am21 °FIce fog.3 mph93%30.24 "Hg2 mi
7:30 am21 °FIce fog.3 mph93%30.24 "Hg2 mi
7:00 am21 °FIce fog.3 mph93%30.24 "Hg3 mi
6:30 am21 °FIce fog.3 mph93%30.24 "Hg3 mi
6:00 am21 °FIce fog.1 mph93%30.24 "Hg3 mi
5:30 am21 °FIce fog.3 mph93%30.24 "Hg3 mi
5:00 am21 °FIce fog.No wind93%30.24 "Hg3 mi
4:30 am21 °FIce fog.3 mph93%30.24 "Hg2 mi
4:00 am21 °FIce fog.3 mph93%30.24 "Hg3 mi
3:30 am21 °FIce fog.3 mph93%30.24 "Hg3 mi
3:00 am21 °FIce fog.5 mph93%30.24 "Hg3 mi
2:30 am21 °FIce fog.No wind93%30.24 "Hg2 mi
2:00 am21 °FIce fog.No wind93%30.24 "Hg2 mi
1:30 am19 °FIce fog.No wind100%30.27 "Hg2 mi
1:00 am19 °FIce fog.3 mph100%30.27 "Hg2 mi
12:30 am19 °FIce fog.3 mph93%30.27 "Hg1 mi
12:00 am19 °FCold.3 mph93%30.27 "Hg1 mi
11:30 pm
Sun, Jan 22
19 °FCold.3 mph93%30.27 "Hg1 mi
11:00 pm19 °FIce fog.2 mph100%30.24 "Hg0 mi
10:30 pm19 °FIce fog.2 mph93%30.24 "Hg0 mi
10:00 pm19 °FIce fog.1 mph100%30.24 "Hg0 mi
9:30 pm21 °FIce fog.3 mph93%30.24 "Hg0 mi
9:00 pm21 °FIce fog.3 mph93%30.24 "Hg0 mi
8:30 pm21 °FIce fog.5 mph93%30.24 "Hg0 mi
8:00 pm21 °FIce fog.6 mph100%30.24 "Hg0 mi
7:30 pm21 °FIce fog.7 mph93%30.24 "Hg0 mi
7:00 pm19 °FIce fog.7 mph100%30.24 "Hg3 mi
6:30 pm21 °FClear.6 mph86%30.24 "Hg4 mi
6:00 pm23 °FClear.3 mph80%30.21 "Hg5 mi
5:30 pm27 °FClear.3 mph74%30.21 "Hg5 mi
5:00 pm27 °FClear.3 mph74%30.21 "Hg6 mi
4:30 pm28 °FClear.6 mph74%30.21 "Hg6 mi
4:00 pm30 °FClear.6 mph69%30.21 "Hg6 mi
3:30 pm32 °FClear.6 mph64%30.21 "Hg6 mi
3:00 pm32 °FClear.5 mph64%30.21 "Hg6 mi
2:30 pm32 °FClear.5 mph64%30.21 "Hg6 mi
2:00 pm30 °FClear.6 mph69%30.21 "Hg6 mi
1:30 pm30 °FPassing clouds.6 mph69%30.21 "HgN/A
1:00 pm28 °FClear.6 mph74%30.24 "Hg6 mi
12:30 pm28 °FClear.3 mph74%30.24 "Hg5 mi
12:00 pm28 °FPassing clouds.3 mph74%30.27 "Hg5 mi
11:30 am27 °FPassing clouds.5 mph80%30.27 "Hg5 mi
11:00 am27 °FPassing clouds.7 mph80%30.27 "Hg4 mi
Weather by CustomWeather, © 2017

See weather overviewHow to use our weather pages